Regional Weather Roundup
Issued by NWS

Home | Current Version | Previous Version | Text Only | Print | Product List | Glossary Off
Versions: 1 2 3 4 5 6 7 8 9 10 11 12 13 14 15 16 17 18 19 20 21 22 23 24 25 26 27 28 29 30 31 32 33 34 35 36 37 38 39 40 41 42 43 44 45 46 47 48 49 50

000
ASUS43 KMKX 201021
RWRWI

WISCONSIN REGIONAL WEATHER ROUNDUP
NATIONAL WEATHER SERVICE MILWAUKEE/SULLIVAN WI
500 AM CDT SAT SEP 20 2014

NOTE: "FAIR" INDICATES FEW OR NO CLOUDS BELOW 12,000 FEET WITH NO
SIGNIFICANT WEATHER AND/OR OBSTRUCTIONS TO VISIBILITY.

WIZ001-002-006>008-014>016-023>028-201100-
NORTHWEST WISCONSIN

CITY           SKY/WX    TMP DP  RH WIND       PRES   REMARKS
SUPERIOR ARPT  CLOUDY    59  59  99 SW6       29.59S FOG
ASHLAND        PTCLDY    65  63  93 SW10      29.58R
HAYWARD        PTCLDY    65  65 100 SW6       29.63R
SIREN          CLOUDY    66  63  89 W10       29.65S
RICE LAKE      MOCLDY    67  64  90 SW8       29.67S
LADYSMITH      CLOUDY    68  65  91 SW9       29.68S
EAU CLAIRE     CLOUDY    67  63  87 SW9       29.70R
MENOMONIE      PTSUNNY   69  63  82 SW16      29.69S
NEW RICHMOND   MOCLDY    66  65  96 SW14      29.70R
OSCEOLA        MOCLDY    68  68 100 SW8       29.71R
$$

WIZ003>005-009-010-017-018-201100-
NORTH CENTRAL WISCONSIN

CITY           SKY/WX    TMP DP  RH WIND       PRES   REMARKS
WOODRUFF       CLOUDY    65  63  91 SW9         N/A
RHINELANDER    CLOUDY    63  60  90 SW12      29.71R
EAGLE RIVER    CLOUDY    64  61  92 SW7       29.67R
LAND O LAKES   CLOUDY    64  61  91 SW7       29.66F FOG
PHILLIPS       CLOUDY    65  64  96 SW10      29.66S
TOMAHAWK       CLOUDY    64  61  90 S3        29.70S
MEDFORD        CLOUDY    64  63  96 SW12      29.71S
MERRILL        CLOUDY    65  63  93 SW9       29.71S
$$

WIZ029-030-035-036-043>047-201100-
CENTRAL WISCONSIN

CITY           SKY/WX    TMP DP  RH WIND       PRES   REMARKS
WAUSAU         CLOUDY    64  62  93 SW13      29.71S
MOSINEE        CLOUDY    63  63 100 S12G18    29.75S
MARSHFIELD     CLOUDY    66  63  90 SW9       29.73S
STEVENS POINT  LGT RAIN  62  61  95 SW6       29.75F
WAUPACA        LGT RAIN  65  63  96 SW5       29.75F
WAUTOMA        LGT RAIN  64  63  97 VRB7      29.73F
WISC RAPIDS    LGT RAIN  65  62  90 SW6       29.77R
CAMP DOUGLAS   CLOUDY    65  65 100 W8        29.74R
$$

WIZ011>013-019>022-031-037>040-048>050-201100-
NORTHEAST WISCONSIN

CITY           SKY/WX    TMP DP  RH WIND       PRES   REMARKS
ANTIGO         CLOUDY    62  60  94 SW14      29.72S
STURGEON BAY   CLOUDY    63  61  94 SW14G22   29.73S
GREEN BAY      LGT RAIN  62  61  96 SW9G20    29.74F
MANITOWOC      LGT RAIN  63  60  90 W14G20    29.76F
APPLETON       LGT RAIN  63  61  94 SW17      29.76F
CLINTONVILLE   CLOUDY    63  61  94 SW8       29.74R
OSHKOSH        LGT RAIN  65  62  90 SW14G22   29.77F
$$

WIZ032>034-041-042-053>061-201100-
SOUTHWEST WISCONSIN

CITY           SKY/WX    TMP DP  RH WIND       PRES   REMARKS
LA CROSSE      CLOUDY    66  62  87 S8        29.74S
SPARTA         CLOUDY    65  62  90 SW6       29.75S
VIROQUA        FAIR      64  64 100 SW15G22   29.78R
BOSCOBEL       LGT RAIN  67  64  90 S12       29.79F FOG
PRAIRIE DU CHI LGT RAIN  65  64  96 S7        29.80F
PLATTEVILLE    MOCLDY    63  62  95 S7        29.88F
$$

WIZ056-057-062-063-064-067-068-201100-
SOUTH CENTRAL WISCONSIN

CITY           SKY/WX    TMP DP  RH WIND       PRES   REMARKS
BARABOO/DELLS  CLOUDY    64  61  91 SW14      29.79F
LONE ROCK      LGT RAIN  69  62  78 SW5       29.83F
WATERTOWN      LGT RAIN  63  61  92 S7        29.85F
MADISON        LGT RAIN  65  61  87 SW7       29.83F
MIDDLETON      CLOUDY    65  63  90 SW10G16   29.83F
MONROE         CLOUDY    63  61  94 SW13      29.89F
JANESVILLE     LGT RAIN  63  57  82 SW10      29.90R
$$

WIZ051-052-058>065-066-070>072-201100-
SOUTHEAST WISCONSIN

CITY           SKY/WX    TMP DP  RH WIND       PRES   REMARKS
MILWAUKEE      CLOUDY    66  55  67 SW18G31   29.87R
WAUKESHA       LGT RAIN  63  55  77 SW8       29.89F
MILWAUKEE/TIMM LGT RAIN  64  54  68 SW14G22   29.86F
RACINE         CLOUDY    66  55  67 W13G20    29.91R
BURLINGTON     CLOUDY    61  55  82 SW8G17    29.90R
KENOSHA        CLOUDY    66  56  70 W16G23    29.90R
FOND DU LAC    LGT RAIN  63  59  87 SW14      29.81R
SHEBOYGAN      LGT RAIN  64  59  83 W20G26    29.80F
WEST BEND      CLOUDY    63  55  77 SW10G21   29.83F
JUNEAU         LGT RAIN  61  58  90 S3        29.84F
$$

LSZ147-162-201100-
LAKE SUPERIOR

STATION/POSITION TIME  TEMP    WIND        PRES    WAVE
                       AIR SEA DIR/SP/G            HT/PER
                 (UTC) (F)     (DEG/KT/KT) (MB)    (FT/S)
W MID LAKE BUOY  0950   53 48  220/  2/  4 1000.4S   1
DEVILS ISLAND    1000   58     230/  8/  8 1000.7R
PORT WING        0900   62     190/  3/  5 1001.4
SAXON HARBOR     0900   68     190/  7/ 11 1001.4F
$$

LMZ867-665-643>646-201100-
LAKE MICHIGAN

STATION/POSITION TIME  TEMP    WIND        PRES    WAVE
                       AIR SEA DIR/SP/G            HT/PER
                 (UTC) (F)     (DEG/KT/KT) (MB)    (FT/S)
N MID LAKE BUOY  0950   59 58  210/ 25/ 31 1005.5R   8/ 8
NORTHPORT PIER   0900   59     190/  6/ 11 1006.1S
SISTER BAY       0742          180/ 11/ 13   N/A
KEWAUNEE LAKESHO 1000   63     230/  8/ 13 1006.1F
SHEBOYGAN LAKESH 1000   65 55  230/ 17/ 22 1008.9F
PORT WASHINGTON  0900   68     250/ 11/ 24 1010.5R
ATWATER BUOY     0900   66     210/ 16/ 23 1011.3F
MILWAUKEE LAKESH 1000   67     250/ 17/ 22   N/A
S MID LAKE BUOY  0950   65 64  210/ 21/ 25 1011.8R   4/ 6
KENOSHA   LAKESH 1000   67     240/ 10/ 16 1012.2R
$$

TC  - TEMPERATURE IN CELSIUS
VSB - VISIBILITY IN STATUTE MILES
WCI - WIND CHILL INDEX
HX  - HEAT INDEX



USA.gov is the U.S. government's official web portal to all federal, state and local government web resources and services.